Regional Weather Roundup
Issued by NWS

Home | Current Version | Previous Version | Graphics & Text | Print | Product List | Glossary Off
Versions: 1 2 3 4 5 6 7 8 9 10 11 12 13 14 15 16 17 18 19 20 21 22 23 24 25 26 27 28 29 30 31 32 33 34 35 36 37 38 39 40 41 42 43 44 45 46 47 48 49 50

847
ASUS43 KTOP 241559
RWRKS

WEATHER ROUNDUP FOR KANSAS
NATIONAL WEATHER SERVICE GOODLAND KS
1000 AM CST TUE JAN 24 2017

NOTE:  "FAIR" INDICATES FEW OR NO CLOUDS BELOW 12,000 FEET WITH NO
SIGNIFICANT WEATHER AND/OR OBSTRUCTIONS TO VISIBILITY.

KSZ001>006-013>018-027>032-041>047-241700-
NORTHWEST KANSAS

CITY           SKY/WX    TMP DP  RH WIND       PRES   REMARKS
GOODLAND       CLOUDY    30  29  96 NW20      29.49R FOG     WCI  17
HAYS           SUNNY     38  32  79 NE6       29.43R
HILL CITY      CLOUDY    33  32  96 NE14      29.44F FOG     WCI  23
RUSSELL        SUNNY     38  33  82 SE5       29.41S
$$

KSZ061>065-074>080-084>089-241700-
SOUTHWEST KANSAS

CITY           SKY/WX    TMP DP  RH WIND       PRES   REMARKS
DODGE CITY     SUNNY     47  33  58 W18       29.43R
ELKHART          N/A     48  32  54 W9          N/A
GARDEN CITY    SUNNY     38  30  73 NW14      29.45R WCI  30
GREAT BEND     SUNNY     45  36  70 S12       29.41F
LIBERAL          N/A     46  34  61 SW15      29.48R
$$

KSZ066>073-081>083-090>101-241700-
SOUTHEAST KANSAS

CITY           SKY/WX    TMP DP  RH WIND       PRES   REMARKS
CHANUTE        MOSUNNY   49  37  63 SE16      29.58F
COFFEYVILLE    SUNNY     51  37  58 S12       29.59F
HUTCHINSON     SUNNY     47  37  68 S17       29.46F
MEDICINE LODGE   N/A     45  36  70 S14       29.46F
NEWTON         CLOUDY    44  37  76 SE13      29.49F
PARSONS        SUNNY     52  37  56 SE12      29.60F
WICHITA INTL   CLOUDY    50  38  63 S15       29.49R
WICHITA JABRA  CLOUDY    50  37  61 S15G22    29.49S
WICHITA MCCONL SUNNY     51  36  57 S12G20    29.49S
WINFIELD       SUNNY     53  37  54 S16       29.51F
$$

KSZ007>012-019>026-033>040-048>060-102>105-241700-
NORTHEAST KANSAS

CITY           SKY/WX    TMP DP  RH WIND       PRES   REMARKS
CONCORDIA      MOSUNNY   39  33  79 E15G28    29.48F WCI  31
EMPORIA        CLOUDY    42  34  73 SE15G23   29.54F
LAWRENCE       CLOUDY    37  34  89 E15       29.66F WCI  28
MANHATTAN      CLOUDY    38  33  82 E14G26    29.54F WCI  30
OLATHE IND     SUNNY     37  33  85 E13G21    29.66F WCI  29
OLATHE EXE     CLOUDY    36  33  89 E15       29.67F WCI  27
SALINA         MOSUNNY   39  32  76 E14G22    29.47F WCI  31
TOPEKA BILLARD CLOUDY    37  32  82 E14       29.63F WCI  28
TOPEKA FORBES  CLOUDY    39  33  79 E15G22    29.60F WCI  31
$$




USA.gov is the U.S. government's official web portal to all federal, state and local government web resources and services.